WetterOnline ( https://www.wetteronline.ch )

Wetter aktuell Regensburg

Aktuelles Wetter: Regensburg/Oberhub (371m)

6-stündlich | Neueste Meldungen
Ortszeit Temperatur Wetter
So, 25.02. 1:00 1.9° C bedeckt
Sa, 24.02. 19:00 5.3° C bewölkt
Sa, 24.02. 13:00 5.9° C wolkig
Sa, 24.02. 7:00 1.6° C bewölkt
Sa, 24.02. 1:00 2.5° C bedeckt
Fr, 23.02. 19:00 4.7° C bewölkt
Fr, 23.02. 13:00 6.4° C bewölkt
Fr, 23.02. 7:00 4.6° C bewölkt
Ortszeit Temperatur Wetter
So, 25.02. 5:30 1.9° C bewölkt
So, 25.02. 5:20 1.9° C bewölkt
So, 25.02. 5:10 1.7° C bedeckt
So, 25.02. 5:00 1.5° C bewölkt
So, 25.02. 4:50 1.5° C bewölkt
So, 25.02. 4:40 1.5° C bewölkt
So, 25.02. 4:30 1.5° C bedeckt
So, 25.02. 4:00 1.4° C bewölkt
So, 25.02. 3:30 1.4° C wolkig
So, 25.02. 3:00 1.6° C bewölkt
So, 25.02. 2:30 1.9° C bewölkt
Ortszeit Relative Feuchte Sichtweite
So, 25.02. 1:00 91% 50 km
Sa, 24.02. 19:00 75% >70 km
Sa, 24.02. 13:00 72% 40 km
Sa, 24.02. 7:00 91% 9 km
Sa, 24.02. 1:00 89% 50 km
Fr, 23.02. 19:00 74% >70 km
Fr, 23.02. 13:00 72% >70 km
Fr, 23.02. 7:00 89% >70 km
Ortszeit Relative Feuchte Sichtweite
So, 25.02. 5:30 92% 30 km
So, 25.02. 5:20 92% -
So, 25.02. 5:10 93% -
So, 25.02. 5:00 94% 35 km
So, 25.02. 4:50 94% -
So, 25.02. 4:40 94% -
So, 25.02. 4:30 93% 35 km
So, 25.02. 4:00 94% 25 km
So, 25.02. 3:30 92% 27 km
So, 25.02. 3:00 92% 35 km
So, 25.02. 2:30 92% 40 km
Ortszeit Niederschlagsmenge Niederschlagsart
So, 25.02. 1:00 0.0 l/m2 in 6 Std. -
Sa, 24.02. 19:00 0.0 l/m2 in 12 Std. -
Sa, 24.02. 13:00 0.0 l/m2 in 6 Std. -
Sa, 24.02. 7:00 0.0 l/m2 in 12 Std. -
Sa, 24.02. 1:00 0.0 l/m2 in 6 Std. -
Fr, 23.02. 19:00 0.0 l/m2 in 12 Std. -
Fr, 23.02. 13:00 0.0 l/m2 in 6 Std. -
Fr, 23.02. 7:00 8 l/m2 in 12 Std. Regen
Ortszeit Niederschlagsmenge Niederschlagsart
So, 25.02. 5:30 0.0 l/m2 in 30 Min -
So, 25.02. 5:20 keine Meldung -
So, 25.02. 5:10 keine Meldung -
So, 25.02. 5:00 0.0 l/m2 in 1 Std. -
So, 25.02. 4:50 keine Meldung -
So, 25.02. 4:40 keine Meldung -
So, 25.02. 4:30 0.0 l/m2 in 30 Min -
So, 25.02. 4:00 0.0 l/m2 in 1 Std. -
So, 25.02. 3:30 0.0 l/m2 in 30 Min -
So, 25.02. 3:00 0.0 l/m2 in 1 Std. -
So, 25.02. 2:30 0.0 l/m2 in 30 Min -
Ortszeit Stärke Spitze Richtung
km/h Bft. km/h Grad Sektor
So, 25.02. 1:00 4 1 11 20° N
Sa, 24.02. 19:00 6 1 26 130° SO
Sa, 24.02. 13:00 13 3 28 140° SO
Sa, 24.02. 7:00 11 2 32 150° SO
Sa, 24.02. 1:00 9 2 19 140° SO
Fr, 23.02. 19:00 7 2 26 200° S
Fr, 23.02. 13:00 9 2 20 200° S
Fr, 23.02. 7:00 7 2 58 180° S
Ortszeit Stärke Spitze Richtung
km/h Bft. km/h Grad Sektor
So, 25.02. 5:30 2 1 6 120° SO
So, 25.02. 5:20 2 1 - 120° SO
So, 25.02. 5:10 4 1 - 200° S
So, 25.02. 5:00 2 1 6 270° W
So, 25.02. 4:50 2 1 - 270° W
So, 25.02. 4:40 2 1 - 250° W
So, 25.02. 4:30 2 1 6 190° S
So, 25.02. 4:00 4 1 7 340° N
So, 25.02. 3:30 4 1 7 20° N
So, 25.02. 3:00 4 1 7 360° N
So, 25.02. 2:30 0 0 4 - -
Ortszeit Untergrenze Bedeckung Gattung
total tief tief mittel hoch
So, 25.02. 1:00 3000 m 8/8 8/8 - - -
Sa, 24.02. 19:00 4200 m 8/8 6/8 - - -
Sa, 24.02. 13:00 5700 m 8/8 8/8 - - -
Sa, 24.02. 7:00 120 m 7/8 7/8 - - -
Sa, 24.02. 1:00 4500 m 8/8 8/8 - - -
Fr, 23.02. 19:00 1290 m 8/8 7/8 - - -
Fr, 23.02. 13:00 1800 m 7/8 7/8 - - -
Fr, 23.02. 7:00 1050 m 8/8 7/8 - - -
Ortszeit Bedeckungsgrad in Achtel und Wolkenuntergrenze
So, 25.02. 5:30 7(2100m) 7(3600m)
So, 25.02. 5:20 7(2100m) 7(3600m)
So, 25.02. 5:10 8
So, 25.02. 5:00 7(2100m)
So, 25.02. 4:50 7(2100m)
So, 25.02. 4:40 7
So, 25.02. 4:30 8(2400m)
So, 25.02. 4:00 7(2400m) 8(3000m)
So, 25.02. 3:30 1(2100m) 8(3000m)
So, 25.02. 3:00 2(2100m) 4(2400m) 8(3300m)
So, 25.02. 2:30 7(2100m) 8(3300m)
Ortszeit Luftdruck NN (hPa) Tendenz (hPa in 3 Std.)
So, 25.02. 1:00 1010 + 0,3
Sa, 24.02. 19:00 1009 + 0,8
Sa, 24.02. 13:00 1007 + 0,8
Sa, 24.02. 7:00 1004 + 1,3
Sa, 24.02. 1:00 1002 - 0,2
Fr, 23.02. 19:00 1002 + 0,9
Fr, 23.02. 13:00 1002 + 0,6
Fr, 23.02. 7:00 1000 + 0,8
Ortszeit Luftdruck NN (hPa) Tendenz (hPa in 3 Std.)
So, 25.02. 5:30 1010 - 0,4
So, 25.02. 5:20 1010 keine Meldung
So, 25.02. 5:10 1010 keine Meldung
So, 25.02. 5:00 1010 - 0,3
So, 25.02. 4:50 1010 keine Meldung
So, 25.02. 4:40 1010 keine Meldung
So, 25.02. 4:30 1010 - 0,5
So, 25.02. 4:00 1010 - 0,2
So, 25.02. 3:30 1010 - 0,4
So, 25.02. 3:00 1010 0,0
So, 25.02. 2:30 1010 + 0,1
Ortszeit Schneehöhe (cm)
So, 25.02. 1:00 0
Sa, 24.02. 19:00 0
Sa, 24.02. 13:00 0
Sa, 24.02. 7:00 0
Sa, 24.02. 1:00 0
Fr, 23.02. 19:00 0
Fr, 23.02. 13:00 0
Fr, 23.02. 7:00 0
Ortszeit Schneehöhe (cm)
So, 25.02. 5:30 0
So, 25.02. 5:20 0
So, 25.02. 5:10 -
So, 25.02. 5:00 0
So, 25.02. 4:50 0
So, 25.02. 4:40 -
So, 25.02. 4:30 0
So, 25.02. 4:00 0
So, 25.02. 3:30 0
So, 25.02. 3:00 0
So, 25.02. 2:30 0
Link zu dieser Seite / Seite empfehlen

Das Wetter in ...